Theta_e
293 294 294 294 295 295 294 294 294 294 293 292 291 291 291 291 291 290 290 289 288 288 289 288 288 289 288 288 289 289 288 288 284 286 289 290 290 290 291 292 293 293 293
292 292 292 293 293 293 293 293 294 293 293 291 291 291 290 290 290 289 289 289 288 287 288 287 287 288 287 288 288 287 287 287 285 282 285 286 286 287 288 288 289 291 292
290 291 291 290 291 292 292 293 293 292 291 291 290 290 289 290 289 289 289 288 287 287 287 286 286 286 285 285 285 285 285 286 285 283 282 285 286 286 286 287 287 288 291
289 289 288 289 289 290 290 291 292 292 290 290 290 289 289 289 289 288 288 287 287 287 287 287 286 285 284 284 284 284 285 284 284 283 283 283 284 285 286 285 284 287 288
286 286 286 287 287 287 288 289 290 291 290 289 289 288 288 288 288 288 287 287 286 285 286 286 286 285 285 284 283 282 282 283 283 282 281 282 283 282 282 284 284 285 286
285 284 285 285 284 284 285 286 287 288 289 288 287 287 287 287 288 287 286 285 285 284 284 284 284 284 284 284 284 284 285 282 282 282 281 280 280 282 283 283 284 283 282
283 284 284 283 282 282 283 284 284 285 287 286 287 286 285 286 287 286 285 284 284 283 284 283 283 283 282 282 283 284 284 285 286 283 280 280 280 282 282 281 282 283 283
283 283 284 282 282 281 281 281 282 284 285 285 285 285 285 285 286 286 285 283 283 283 283 283 283 282 282 282 281 281 283 283 283 283 282 282 282 283 283 283 282 282 283
282 283 284 284 283 281 279 279 281 283 284 284 285 284 284 284 285 285 284 283 282 283 284 284 283 282 283 282 281 281 281 281 284 284 284 285 285 285 284 282 280 280 281
282 283 284 284 283 281 280 279 280 282 283 284 284 284 283 284 285 284 284 282 281 282 283 283 283 280 282 282 281 280 278 279 280 280 280 282 283 283 283 281 280 279 281
283 283 283 283 283 282 280 280 280 281 283 283 283 284 283 283 284 284 284 282 282 282 282 282 282 282 282 283 283 280 279 281 279 279 280 282 281 281 280 279 279 279 280
281 281 281 281 282 283 281 279 279 281 281 281 282 282 283 283 283 283 284 284 283 282 281 281 280 281 281 281 281 281 280 279 279 279 280 279 278 278 280 279 278 278 279
279 279 278 278 280 283 281 279 279 279 280 281 280 280 281 281 281 283 283 284 283 282 282 281 281 280 280 280 279 279 276 277 277 278 277 277 279 279 281 281 280 279 279
277 277 277 277 280 283 281 280 279 279 279 280 280 280 280 281 281 281 281 282 282 282 280 278 277 278 279 280 277 278 277 276 276 277 277 279 280 279 279 280 279 279 277
276 276 275 277 280 281 281 280 279 280 281 280 281 281 280 280 281 282 282 281 281 280 275 276 277 277 277 277 277 276 276 276 276 277 278 278 278 277 277 278 278 277 275
274 274 274 276 280 282 280 279 281 282 282 283 284 283 282 284 285 284 283 284 283 280 274 276 276 275 275 274 274 275 274 273 274 277 278 278 278 277 277 278 278 276 274
271 272 273 274 278 280 280 278 277 279 282 283 284 284 284 282 283 284 284 284 282 279 275 275 275 275 274 273 273 273 272 272 273 276 277 278 276 276 276 276 276 275 273
270 270 270 272 276 280 281 279 278 277 277 277 282 283 283 283 283 284 283 282 277 276 274 274 274 274 274 273 273 272 273 273 273 275 275 276 276 275 274 273 273 273 272
269 269 271 274 279 281 281 280 278 278 278 279 279 282 282 283 283 284 282 276 275 274 273 273 273 272 272 272 271 271 270 269 271 272 272 273 273 272 271 271 271 270 270
268 268 269 271 278 282 281 278 277 278 278 279 280 280 281 281 280 280 280 277 275 275 273 272 271 270 271 271 271 271 272 271 271 270 270 270 271 271 270 270 270 269 269
267 268 269 273 277 282 280 279 278 278 278 279 280 282 282 281 279 280 280 278 275 274 273 272 271 270 269 269 269 270 269 270 268 268 269 268 268 269 269 269 269 269 268
267 267 270 272 278 281 280 279 278 278 278 278 279 281 284 281 280 280 280 277 276 275 274 272 271 270 269 268 269 270 268 268 267 267 267 266 267 267 267 268 268 267 267
266 267 270 272 276 281 280 279 278 278 278 279 279 280 282 281 281 281 279 277 275 273 272 272 270 268 267 266 268 270 268 267 267 267 267 267 266 267 266 266 264 266 266
265 267 268 270 275 279 279 278 278 278 278 279 278 279 280 281 281 279 278 277 274 271 269 269 269 267 265 266 265 265 264 265 265 265 266 267 265 265 265 264 263 261 262
264 266 268 270 274 278 278 278 278 278 278 278 278 278 279 281 280 278 277 275 272 270 268 268 268 266 265 265 265 264 263 262 263 264 264 265 264 262 262 264 263 261 260
263 265 267 269 273 277 277 277 277 278 278 278 278 277 278 279 279 277 276 273 271 269 267 268 267 265 264 264 264 262 262 263 261 263 265 265 264 263 263 262 261 262 260
Wind_Speed
8 9 9 9 10 9 9 10 10 9 9 10 10 10 9 9 8 8 8 9 10 10 9 9 10 9 7 7 7 8 9 10 14 13 11 12 14 14 14 14 14 14 13
10 9 9 10 9 10 11 11 11 11 10 10 10 10 10 9 8 9 9 9 10 10 10 9 9 8 10 9 8 10 10 11 12 19 13 11 13 14 15 16 13 12 12
11 10 10 10 11 11 12 12 12 12 11 11 11 11 10 9 9 9 10 10 10 10 10 9 9 8 10 10 10 10 9 9 11 12 13 11 11 10 12 12 12 13 11
10 10 11 11 11 12 12 13 13 12 12 12 11 10 9 9 9 8 10 10 9 8 10 8 9 11 10 11 11 12 11 11 11 11 12 13 11 11 10 10 11 8 8
10 10 11 10 11 12 12 13 13 14 13 13 11 11 10 9 7 9 9 9 8 10 9 8 11 12 16 17 11 13 13 10 10 11 12 12 10 10 10 10 10 10 9
11 13 11 9 11 11 12 12 12 14 14 13 12 11 10 7 11 12 11 7 7 8 9 9 11 12 14 19 19 20 17 13 14 12 12 13 14 11 9 10 9 8 8
12 12 12 11 12 12 11 12 13 13 13 13 13 11 10 9 13 13 14 7 7 8 8 8 9 9 13 12 15 19 19 23 21 14 16 14 14 11 10 12 10 9 9
13 14 13 12 13 11 10 11 12 11 12 12 12 11 9 8 13 14 14 8 7 9 9 9 9 11 11 11 10 12 14 12 10 9 11 13 12 11 11 10 11 11 10
13 14 14 12 13 11 12 11 11 11 11 12 11 11 10 9 14 15 12 7 7 9 7 7 9 11 13 14 11 13 13 12 10 17 18 19 18 16 13 6 7 7 7
15 15 13 13 14 13 12 11 10 11 11 10 11 10 9 9 14 15 13 6 7 6 5 5 11 8 13 14 10 10 11 10 11 12 9 10 9 8 10 6 6 6 5
15 15 14 15 16 12 12 9 9 10 10 11 10 10 9 8 9 17 17 7 6 5 5 5 4 9 12 15 14 8 9 12 12 8 7 5 5 6 5 5 5 5 5
16 17 16 16 14 12 11 9 9 10 10 11 11 9 9 10 14 15 17 17 11 6 5 4 4 11 14 13 9 12 15 11 5 5 5 4 5 5 4 5 6 5 5
17 18 16 17 17 15 11 10 8 9 10 10 8 8 8 7 7 18 17 17 15 9 4 7 11 13 11 8 9 11 7 4 5 4 4 4 4 5 4 2 4 5 9
18 18 16 17 17 14 8 8 8 9 10 9 9 9 7 6 7 6 8 8 11 8 5 4 5 8 9 7 3 4 3 3 3 4 4 3 2 4 5 5 4 4 7
16 15 16 15 16 14 10 9 10 11 12 10 10 8 8 8 9 12 10 7 6 6 4 2 2 2 2 2 2 1 2 3 4 4 3 4 4 5 6 6 6 5 6
15 13 12 13 12 10 7 8 19 20 19 23 19 11 6 7 12 18 17 13 12 11 2 2 2 1 1 2 3 3 2 4 4 4 3 4 5 5 5 6 5 6 6
15 15 12 14 12 10 7 8 8 9 22 21 22 16 14 11 13 16 17 15 14 10 2 2 2 1 0 1 1 1 2 2 2 4 4 4 4 5 6 6 6 6 8
14 17 13 13 13 12 9 8 7 7 8 10 18 16 17 14 15 16 16 14 7 4 2 2 2 2 1 1 1 2 2 2 2 4 5 4 5 5 6 6 6 6 7
12 11 12 12 11 11 8 7 7 8 7 8 7 14 14 17 17 18 19 4 7 6 4 3 2 2 2 2 1 1 2 2 2 2 3 4 4 4 6 6 7 8 7
12 18 16 12 13 11 7 7 7 7 7 8 8 9 10 10 9 11 11 7 3 5 6 5 3 2 2 2 1 1 1 1 2 3 3 3 4 4 6 6 6 7 7
9 11 15 12 12 5 6 7 7 7 8 8 8 10 20 12 10 11 11 9 6 5 6 6 5 4 2 3 1 1 1 2 2 2 3 3 3 6 5 5 5 5 5
9 10 11 11 11 8 6 6 7 7 7 8 7 10 23 9 10 10 10 7 6 6 5 7 6 5 4 3 3 2 2 3 2 3 3 3 3 4 4 5 6 5 5
9 11 10 10 11 9 6 6 7 7 7 8 8 8 11 11 10 10 9 8 7 6 5 6 7 5 4 3 2 2 3 2 2 3 3 3 3 4 4 5 4 5 5
10 10 10 10 10 8 6 6 7 8 7 8 8 8 10 10 9 9 8 8 7 6 6 5 6 8 7 5 3 2 3 3 3 3 5 5 5 5 5 6 6 6 5
9 9 9 9 9 7 6 6 6 7 7 7 8 8 8 9 8 8 8 7 7 7 7 6 6 8 9 9 7 6 6 6 4 4 3 5 7 7 5 6 6 5 5
9 10 8 8 8 6 6 6 7 7 7 7 7 8 8 8 8 8 8 8 8 7 8 6 8 10 11 8 9 10 8 7 5 5 5 6 7 5 5 7 8 5 5
Wind_Direction
340 336 323 307 291 276 260 259 253 250 243 238 238 239 239 243 245 249 254 260 263 265 268 275 279 281 282 284 283 280 279 279 282 287 290 292 293 295 293 293 290 286 284
328 325 320 315 306 288 273 262 253 247 239 239 238 237 237 238 243 249 255 262 268 271 273 278 284 294 287 279 277 277 278 278 279 286 292 289 283 285 282 285 288 286 285
317 315 314 314 316 307 293 274 259 247 239 234 233 235 235 234 239 244 252 259 263 267 274 278 281 283 287 287 281 280 277 276 282 285 289 286 285 286 289 284 280 280 276
305 298 298 300 304 301 297 287 269 250 238 230 227 227 231 233 236 244 249 256 262 267 274 279 283 281 280 281 281 280 281 283 287 284 290 295 293 293 284 286 285 279 283
293 286 280 279 289 291 288 284 276 258 240 230 224 221 223 226 229 231 241 251 260 270 271 280 283 286 284 278 279 283 288 286 287 288 286 288 291 301 295 297 286 291 291
293 289 287 279 285 282 281 278 270 261 247 233 222 217 217 219 226 230 244 254 259 265 273 281 285 284 281 284 286 286 283 289 285 287 292 289 292 293 297 291 287 285 304
288 287 286 280 283 281 285 283 268 257 252 236 228 211 214 215 220 230 236 244 250 257 262 274 284 280 281 286 292 294 289 279 282 291 289 287 291 295 295 296 296 291 283
284 290 290 284 283 280 281 275 271 256 245 236 225 212 208 208 217 230 237 242 251 254 256 261 264 270 272 285 291 287 285 293 292 282 275 283 283 285 272 274 278 283 281
289 287 286 282 281 280 281 275 268 257 245 236 227 213 210 209 218 227 233 245 248 252 254 260 262 267 278 292 294 297 298 305 299 308 301 301 307 306 306 302 275 271 284
296 292 285 286 283 275 274 271 262 251 245 238 227 216 207 216 210 227 226 234 250 252 256 257 253 256 282 296 298 302 298 306 316 315 314 309 319 306 323 304 290 277 282
295 291 288 290 287 269 269 257 253 247 235 232 225 221 212 212 220 226 225 223 241 254 264 278 269 297 299 306 308 299 292 313 313 303 303 317 333 333 2 360 353 328 285
295 291 290 293 288 277 260 256 242 237 230 226 222 231 229 227 226 224 222 225 233 244 255 271 286 302 311 311 314 311 315 316 301 310 317 339 348 347 17 19 24 31 37
292 286 286 291 281 273 253 250 238 227 230 220 210 220 227 216 218 224 221 221 230 242 247 269 292 299 310 317 342 318 323 340 331 327 336 345 350 332 355 35 24 40 50
285 283 289 286 279 269 233 235 231 225 222 219 209 209 210 210 203 201 201 209 225 230 239 266 277 284 289 299 312 340 336 349 326 329 334 335 353 12 29 27 26 40 58
281 282 284 280 274 268 237 231 228 228 217 214 215 201 191 208 209 195 183 181 183 197 120 223 251 260 299 354 347 359 358 9 5 344 349 17 40 47 44 33 38 38 48
281 282 279 278 271 261 234 252 238 234 231 229 232 197 200 214 201 193 190 179 175 164 118 202 203 245 350 354 349 342 26 24 347 350 19 52 58 51 53 40 39 36 41
279 280 276 278 280 267 247 238 250 228 232 236 227 208 208 194 198 189 184 179 167 170 146 178 191 182 124 6 350 352 346 342 314 46 25 36 55 51 47 44 44 48 48
272 274 273 265 263 264 247 234 232 223 205 213 221 209 216 207 193 179 172 158 160 201 154 161 169 173 139 33 5 348 348 345 42 55 62 52 46 52 59 56 48 57 61
274 274 270 272 265 253 248 226 223 219 208 202 182 201 204 197 191 181 171 171 173 178 162 154 150 155 132 109 19 355 24 24 360 54 61 58 52 70 80 78 71 64 68
273 268 266 269 276 254 222 216 215 211 203 194 182 182 176 172 181 189 192 190 167 164 159 154 156 141 131 131 149 273 129 74 54 47 57 51 66 73 77 72 68 75 68
272 272 264 267 270 244 219 215 210 201 202 191 189 182 180 181 180 191 191 190 179 165 166 150 154 146 141 135 158 143 84 95 75 71 69 59 59 87 80 80 79 76 81
278 279 274 276 276 246 224 218 208 199 197 187 186 182 183 184 183 191 193 185 173 157 164 148 153 155 154 152 155 148 128 115 118 102 96 87 80 73 80 87 89 81 79
267 271 271 275 275 253 222 214 209 199 192 186 175 169 182 188 186 188 185 176 160 148 145 148 142 140 129 124 116 124 142 143 125 113 114 102 93 89 83 90 84 85 77
267 263 263 267 269 250 223 211 210 199 189 183 171 173 185 187 185 177 171 163 152 147 147 147 150 150 146 136 119 90 72 83 91 104 102 105 102 94 94 89 87 87 83
269 269 266 270 266 243 218 211 204 193 190 183 173 175 181 178 173 173 164 156 152 151 155 151 146 152 153 145 139 124 112 102 96 102 88 94 102 98 97 102 104 96 85
262 263 263 271 270 244 215 208 200 189 184 183 172 172 172 175 166 169 161 156 157 156 154 158 156 150 146 145 140 126 128 123 116 110 103 113 115 109 106 107 106 105 99